Date,TemperatureHighF,TemperatureAvgF,TemperatureLowF,DewpointHighF,DewpointAvgF,DewpointLowF,HumidityHigh,HumidityAvg,HumidityLow,PressureMaxIn,PressureMinIn,WindSpeedMaxMPH,WindSpeedAvgMPH,GustSpeedMaxMPH,PrecipitationSumIn
2013-7-1,82.3,78.1,75.1,72.0,69.5,68.0,80,75,66,30.05,29.89,12,3,20,0.31
2013-7-2,87.0,77.0,72.4,72.0,68.6,67.0,83,75,62,30.22,30.05,8,2,17,1.16
2013-7-3,86.0,78.4,72.4,74.0,70.5,67.0,84,77,62,30.27,30.19,10,2,12,0.33
2013-7-4,88.8,81.1,74.8,73.0,70.4,68.0,84,71,58,30.30,30.21,7,2,12,0.01
2013-7-5,90.1,82.5,75.1,74.0,70.5,68.0,82,68,56,30.28,30.16,9,3,13,0.00
2013-7-6,89.6,81.8,75.1,72.0,69.4,67.0,78,67,55,30.24,30.12,10,3,13,0.00
2013-7-7,89.2,82.7,75.2,73.0,69.3,66.0,75,64,55,30.17,30.04,10,4,16,0.00
2013-7-8,85.7,80.4,76.5,71.0,68.6,67.0,74,67,62,30.14,30.07,8,4,14,0.00
2013-7-9,88.2,81.2,75.7,74.0,69.9,66.0,79,69,61,30.15,30.05,10,4,15,0.00
2013-7-10,89.7,81.8,76.3,75.0,70.3,67.0,79,69,61,30.09,29.93,11,5,17,0.00
2013-7-11,86.1,77.2,73.0,72.0,68.5,67.0,84,75,62,29.96,29.89,10,3,18,0.83
2013-7-12,81.2,75.3,72.8,70.0,68.0,66.0,85,78,64,30.02,29.88,4,1,9,0.56
2013-7-13,86.9,79.2,71.9,74.0,70.2,67.0,85,75,62,30.26,30.02,10,2,14,0.15
2013-7-14,87.4,81.0,75.9,74.0,70.8,69.0,84,72,61,30.32,30.24,4,1,8,0.00
2013-7-15,89.6,80.7,72.9,74.0,70.6,68.0,85,72,60,30.32,30.21,7,1,8,0.00
2013-7-16,92.6,84.1,77.5,77.0,70.7,67.0,71,64,58,30.22,30.13,8,1,11,0.00
2013-7-17,90.7,83.4,76.3,74.0,71.0,68.0,82,67,56,30.19,30.09,5,1,9,0.00
2013-7-18,92.7,83.6,74.8,76.0,70.8,67.0,78,66,57,30.12,30.03,6,1,8,0.00
2013-7-19,92.2,85.0,77.9,76.0,72.0,69.0,76,65,58,30.07,29.94,13,4,18,0.00
2013-7-20,89.9,83.8,77.4,75.0,71.1,69.0,75,66,61,29.99,29.88,11,6,17,0.00
2013-7-21,90.1,82.6,76.0,75.0,70.3,67.0,75,67,61,29.95,29.86,9,3,13,0.00
2013-7-22,88.3,79.8,75.5,74.0,71.1,68.0,84,75,62,29.93,29.80,9,1,18,1.16
2013-7-23,89.8,82.0,76.2,74.0,71.0,69.0,84,70,60,29.80,29.66,13,3,17,0.00
2013-7-24,92.0,82.4,76.6,74.0,69.9,68.0,76,66,50,29.81,29.68,8,2,14,0.00
2013-7-25,77.1,73.7,68.6,67.0,65.4,63.0,83,75,67,29.99,29.80,11,3,17,1.60
2013-7-26,83.0,74.2,68.2,67.0,62.9,60.0,83,69,47,30.08,29.98,7,2,10,0.00
2013-7-27,83.0,75.6,67.0,68.0,63.4,61.0,82,67,53,30.07,29.95,5,1,10,0.00
2013-7-28,87.0,78.8,71.7,71.0,68.1,64.0,82,70,58,29.99,29.91,7,1,11,0.00
2013-7-29,82.3,77.8,72.6,70.0,67.0,63.0,80,70,59,30.15,29.98,9,2,14,0.00
2013-7-30,84.2,76.6,67.9,66.0,62.7,60.0,83,64,47,30.21,30.13,7,1,8,0.00
2013-7-31,82.4,76.7,70.9,67.0,64.5,62.0,78,66,57,30.15,30.04,4,1,10,0.00